EW2826 Weather Reports


time (UTC)temp
C
wind
direction
speed
KPH
gust
KPH
rain 1hr
cm
rain 24hr
cm
rain mn
cm
humidity
%
barometer
mb
20260505225023 12 176 3.2 4.8 0.00 0.00 0.00 72 1028.9
20260505224002 12 113 3.2 9.7 0.00 0.00 0.00 72 1028.7
20260505223023 12 58 3.2 4.8 0.00 0.00 0.00 72 1028.5
20260505222002 12 91 3.2 9.7 0.00 0.00 0.00 72 1028.4
20260505221023 12 0 3.2 8.0 0.00 0.00 0.00 73 1028.3
20260505220002 12 179 3.2 9.7 0.00 0.00 0.00 72 1028.2
20260505215002 12 221 4.8 9.7 0.00 0.00 0.00 72 1028.1
20260505214002 12 37 4.8 11.3 0.00 0.00 0.00 73 1028.0
20260505213002 12 36 3.2 4.8 0.00 0.00 0.00 75 1027.9
20260505212002 12 22 1.6 3.2 0.00 0.00 0.00 76 1027.9
20260505211023 12 229 1.6 3.2 0.00 0.00 0.00 76 1027.9
20260505210002 12 207 1.6 9.7 0.00 0.00 0.00 75 1027.8
20260505205002 12 2 3.2 8.0 0.00 0.00 0.00 73 1027.7
20260505204002 12 226 3.2 8.0 0.00 0.00 0.00 72 1027.7
20260505202023 13 234 4.8 9.7 0.00 0.00 0.00 69 1027.5
20260505201002 13 214 3.2 9.7 0.00 0.00 0.00 70 1027.5
20260505200002 13 99 8.0 12.9 0.00 0.00 0.00 69 1027.4
20260505195023 13 130 8.0 14.5 0.00 0.00 0.00 69 1027.4
20260505194023 13 130 4.8 16.1 0.00 0.00 0.00 68 1027.4
20260505193002 13 175 4.8 9.7 0.00 0.00 0.00 68 1027.4
20260505192002 13 210 3.2 14.5 0.00 0.00 0.00 67 1027.4
20260505191023 13 162 3.2 8.0 0.00 0.00 0.00 66 1027.3
20260505185002 14 129 4.8 11.3 0.00 0.00 0.00 65 1027.3
20260505184023 13 89 8.0 14.5 0.00 0.00 0.00 66 1027.3
20260505183002 13 33 4.8 14.5 0.00 0.00 0.00 65 1027.5
20260505182002 14 231 4.8 11.3 0.00 0.00 0.00 63 1027.4
20260505181023 15 126 4.8 11.3 0.00 0.00 0.00 62 1027.3
20260505180002 15 167 3.2 4.8 0.00 0.00 0.00 61 1027.2
20260505175002 15 106 3.2 8.0 0.00 0.00 0.00 60 1027.3
20260505174023 15 93 8.0 12.9 0.00 0.00 0.00 60 1027.3
20260505173002 15 90 8.0 12.9 0.00 0.00 0.00 60 1027.2
20260505172022 15 91 8.0 14.5 0.00 0.00 0.00 59 1027.3
20260505171003 15 85 6.4 12.9 0.00 0.00 0.00 58 1027.2
20260505170001 16 115 3.2 8.0 0.00 0.00 0.00 57 1027.1
20260505165002 16 96 9.7 16.1 0.00 0.00 0.00 57 1027.1
20260505164002 16 114 6.4 20.9 0.00 0.00 0.00 57 1027.1
20260505163002 16 107 3.2 8.0 0.00 0.00 0.00 57 1027.0
20260505162002 16 94 6.4 12.9 0.00 0.00 0.00 57 1027.0
20260505161002 16 109 8.0 14.5 0.00 0.00 0.00 57 1026.9
20260505151002 15 117 4.8 12.9 0.00 0.00 0.00 61 1027.1
20260505125002 14 162 0.0 0.0 0.00 0.00 0.00 71 1026.9
20260505124002 14 226 1.6 3.2 0.00 0.00 0.00 71 1026.9
20260505123001 15 207 1.6 4.8 0.00 0.00 0.00 70 1026.9
20260505122002 15 204 1.6 3.2 0.00 0.00 0.00 70 1026.8
20260505121002 15 191 1.6 3.2 0.00 0.00 0.00 69 1026.8
20260505120003 15 197 1.6 1.6 0.00 0.00 0.00 69 1026.8
20260505115002 15 203 1.6 1.6 0.00 0.00 0.00 69 1026.7
20260505114002 15 188 1.6 1.6 0.00 0.00 0.00 68 1026.6
20260505113003 15 185 1.6 1.6 0.00 0.00 0.00 68 1026.6
20260505112002 16 214 1.6 1.6 0.00 0.00 0.00 68 1026.6
20260505111002 16 226 0.0 0.0 0.00 0.00 0.00 67 1026.6
20260505102023 17 193 1.6 3.2 0.00 0.00 0.00 63 1026.0
20260505101023 18 185 1.6 3.2 0.00 0.00 0.00 62 1025.9
20260505100003 18 184 1.6 4.8 0.00 0.00 0.00 61 1025.8
20260505095002 18 198 1.6 3.2 0.00 0.00 0.00 60 1025.7
20260505094002 19 197 1.6 4.8 0.00 0.00 0.00 58 1025.6
20260505093002 20 197 1.6 3.2 0.00 0.00 0.00 57 1025.6
20260505092023 20 198 3.2 12.9 0.00 0.00 0.00 56 1025.5
20260505091002 20 200 1.6 3.2 0.00 0.00 0.00 55 1025.4
20260505090023 20 185 1.6 3.2 0.00 0.00 0.00 54 1025.4
20260505085002 21 191 1.6 3.2 0.00 0.00 0.00 53 1025.3
20260505084002 21 195 3.2 9.7 0.00 0.00 0.00 53 1025.2
20260505083002 21 199 1.6 3.2 0.00 0.00 0.00 48 1025.2
20260505082002 22 195 1.6 4.8 0.00 0.00 0.00 47 1025.2
20260505081002 22 206 1.6 4.8 0.00 0.00 0.00 45 1025.2
20260505080002 23 166 1.6 3.2 0.00 0.00 0.00 45 1025.1
20260505075002 23 181 1.6 4.8 0.00 0.00 0.00 44 1025.1
20260505074002 24 202 1.6 3.2 0.00 0.00 0.00 42 1025.1
20260505073023 24 199 1.6 1.6 0.00 0.00 0.00 42 1025.0
20260505072007 24 1 3.2 3.2 0.00 0.00 0.00 41 1025.1
20260505071003 23 64 3.2 9.7 0.00 0.00 0.00 42 1025.1
20260505070024 23 63 4.8 12.9 0.00 0.00 0.00 41 1025.0
20260505065002 24 208 3.2 4.8 0.00 0.00 0.00 41 1025.1
20260505063002 23 166 3.2 4.8 0.00 0.00 0.00 41 1025.1
20260505062002 24 56 1.6 8.0 0.00 0.00 0.00 41 1025.1
20260505061023 23 208 1.6 3.2 0.00 0.00 0.00 41 1025.1
20260505060024 23 172 1.6 3.2 0.00 0.00 0.00 42 1025.2
20260505055003 23 188 3.2 8.0 0.00 0.00 0.00 40 1025.2
20260505054002 24 187 1.6 3.2 0.00 0.00 0.00 40 1025.2
20260505053002 23 10 3.2 8.0 0.00 0.00 0.00 41 1025.3
20260505052002 23 180 3.2 4.8 0.00 0.00 0.00 42 1025.4
20260505051002 23 218 1.6 3.2 0.00 0.00 0.00 42 1025.6
20260505041001 21 65 4.8 9.7 0.00 0.00 0.00 47 1026.5
20260505040002 21 49 1.6 8.0 0.00 0.00 0.00 48 1026.7
20260505035002 21 128 3.2 4.8 0.00 0.00 0.00 49 1026.8
20260505034003 21 32 4.8 9.7 0.00 0.00 0.00 49 1026.9
20260505033003 20 34 1.6 3.2 0.00 0.00 0.00 49 1027.1
20260505031002 20 13 4.8 11.3 0.00 0.00 0.00 50 1027.2
20260505030002 20 32 4.8 9.7 0.00 0.00 0.00 49 1027.2
20260505025002 20 70 6.4 9.7 0.00 0.00 0.00 50 1027.2
20260505024003 20 64 8.0 12.9 0.00 0.00 0.00 50 1027.3
20260505023003 19 10 4.8 9.7 0.00 0.00 0.00 51 1027.3
20260505022002 20 21 4.8 9.7 0.00 0.00 0.00 50 1027.3
20260505021002 19 17 3.2 4.8 0.00 0.00 0.00 51 1027.4
20260505020002 18 25 3.2 4.8 0.00 0.00 0.00 53 1027.4
20260505015002 18 72 3.2 4.8 0.00 0.00 0.00 55 1027.4
20260505014002 18 59 3.2 4.8 0.00 0.00 0.00 55 1027.4
20260505013023 18 43 3.2 4.8 0.00 0.00 0.00 55 1027.5
20260505012003 17 88 3.2 9.7 0.00 0.00 0.00 57 1027.5
20260505011024 17 98 3.2 9.7 0.00 0.00 0.00 58 1027.5
20260505010003 17 63 4.8 8.0 0.00 0.00 0.00 59 1027.6
20260505005002 16 82 3.2 8.0 0.00 0.00 0.00 60 1027.7
20260505004002 16 31 3.2 4.8 0.00 0.00 0.00 61 1027.6
20260505003002 15 56 4.8 11.3 0.00 0.00 0.00 62 1027.5
20260505002002 15 82 3.2 8.0 0.00 0.00 0.00 65 1027.4
20260505001002 14 72 3.2 8.0 0.00 0.00 0.00 67 1027.1
20260505000024 13 79 6.4 9.7 0.00 0.00 0.00 68 1026.9
20260504235002 13 83 8.0 12.9 0.00 0.00 0.00 69 1026.9
20260504234002 13 65 4.8 8.0 0.00 0.00 0.00 71 1026.8
20260504233001 12 35 4.8 12.9 0.00 0.00 0.00 73 1026.7
20260504232002 12 102 6.4 19.3 0.00 0.00 0.00 75 1026.6
20260504231002 12 6 4.8 9.7 0.00 0.00 0.00 74 1026.6
20260504230002 12 71 1.6 4.8 0.00 0.00 0.00 71 1026.5